Location: *
(60.1759°S, 155.0663°W)
Time: 06:25:16
(UTC+00:00)

COSMOS 2428 - Pass Details

Date: 17 September 2019
Orbit: 845 x 856 km, 70.9° (Epoch: 17 October)

Event Time Altitude Azimuth Distance (km) Brightness Sun altitude
Exits shadow 12:45:10 12° 241° (WSW) 2,363 4.9 -25.3°
Maximum altitude 12:49:39 29° 184° (S) 1,554 4.4 -24.9°
Drops below altitude 10° 12:54:41 10° 125° (SE) 2,529 6.2 -24.5°
Sets 12:57:30 0° 113° (ESE) 3,465 7.0 -24.3°
